Flag for Germany Weather past 2 weeks in Dannenberg, Lower Saxony, Germany

Now
55 °F

Passing clouds.


Feels Like: 54 °F
Forecast: 52 / 57 °F
Wind: 5 mph from West

Location: Marnitz

Current Time: Sep 21, 2014 at 10:54:35 PM

Latest Report: Sep 21, 2014 at 10:00 PM


Visibility: 8 mi

Pressure: 29.85 "Hg

Humidity: 79%

Dew point: 48 °F

Location of DannenbergLocation

Historic Weather in Dannenberg — Graph

°F

Dannenberg temperature yesterday

Maximum temperature yesterday: 71 °F (at 2:00 PM)
Minimum temperature yesterday: 51 °F (at 6:00 AM)
Average temperature yesterday: 59 °F

Past Weeks' High & Low Weather Summary

 TemperatureHumidityPressure
High76 °F (Sep 7, 4:00 PM)99% (Sep 21, 6:00 AM)30.20 "Hg (Sep 21, 6:00 AM)
Low49 °F (Sep 19, 7:00 AM)48% (Sep 10, 4:00 PM)29.83 "Hg (Sep 21, 7:00 PM)
Average61 °F84%30.02 "Hg
* Reported Sep 6 10:00 PM — Sep 21 10:00 PM, Dannenberg, Weather by CustomWeather, © 2014

Note: Actual official high and low records may vary slightly from our data, if they occured in-between our weather recording intervals... More about our weather records

Advertising

Dannenberg weather history for previous 24 hours

 ConditionsComfort  
Time TempWeatherWind HumidityBarometerVisibility
10:00 PM
Sep 21
55 °FPassing clouds.5 mph79%29.85 "Hg7 mi
9:00 PM56 °FPassing clouds.6 mph73%29.85 "Hg9 mi
8:00 PM58 °FPassing clouds.5 mph74%29.84 "Hg22 mi
7:00 PM60 °FPassing clouds.6 mph63%29.83 "Hg43 mi
6:00 PM63 °FPassing clouds.3 mph61%29.84 "Hg43 mi
5:00 PM63 °FOvercast.3 mph63%29.85 "Hg43 mi
4:00 PM62 °FPartly sunny.3 mph66%29.85 "Hg43 mi
3:00 PM62 °FOvercast.3 mph78%29.86 "Hg37 mi
2:00 PM63 °FOvercast.3 mph77%29.86 "Hg9 mi
1:00 PM64 °FDrizzle. Overcast.5 mph76%29.85 "Hg6 mi
12:00 PM61 °FFog.3 mph89%29.87 "Hg4 mi
11:00 AM60 °FFog.5 mph89%29.86 "Hg4 mi
10:00 AM59 °FFog.3 mph95%29.86 "Hg3 mi
9:00 AM58 °FOvercast.2 mph98%29.85 "Hg4 mi
8:00 AM57 °FDrizzle. Low clouds.2 mph99%29.85 "Hg2 mi
7:00 AM56 °FLow clouds.3 mph98%29.84 "Hg0 mi
6:00 AM56 °FPassing clouds.2 mph99%29.84 "Hg1 mi
5:00 AM54 °FDense fog.2 mph98%29.85 "Hg1 mi
4:00 AM55 °FLow clouds.1 mph97%29.86 "Hg0 mi
3:00 AM56 °FPassing clouds.1 mph97%29.87 "Hg1 mi
2:00 AM56 °FPassing clouds.1 mph97%29.88 "Hg1 mi
1:00 AM56 °FPassing clouds.1 mph95%29.88 "Hg1 mi
12:00 AM57 °FFog.1 mph96%29.88 "Hg2 mi
10:00 PM
Sep 20
59 °FFog.1 mph92%29.89 "Hg3 mi
Weather by CustomWeather, © 2014

See weather overviewHow to use our weather pages